Location: Mococo
(38.0255°N, 122.1161°W)
Time: 05:26:55
(UTC+00:00)

Cosmos 2219 - Pass Details

Date: 13 February 2026
Orbit: 832 x 859 km, 71.1° (Epoch: 5 March)

Event Time Altitude Azimuth Distance (km) Brightness Sun altitude
Rises 13:29:23 0° 342° (NNW) 3,432 6.2 -18.5°
Reaches altitude 10° 13:31:55 10° 347° (NNW) 2,489 5.5 -18.0°
Maximum altitude 13:37:30 52° 64° (ENE) 1,042 4.0 -16.9°
Drops below altitude 10° 13:43:00 10° 141° (SE) 2,457 6.2 -15.8°
Sets 13:45:29 0° 146° (SE) 3,384 6.9 -15.4°
